Regional Weather Roundup
Issued by NWS

Home | Current Version | Previous Version | Graphics & Text | Print | Product List | Glossary Off
Versions: 1 2 3 4 5 6 7 8 9 10 11 12 13 14 15 16 17 18 19 20 21 22 23 24 25 26 27 28 29 30 31 32 33 34 35 36 37 38 39 40 41 42 43 44 45 46 47 48 49 50

000
ASUS43 KFSD 030302
RWRSD

WEATHER ROUNDUP FOR SOUTH DAKOTA
NATIONAL WEATHER SERVICE SIOUX FALLS SD
1000 PM CDT TUE SEP 02 2014

NOTE: "FAIR" INDICATES FEW OR NO CLOUDS BELOW 12,000 FEET WITH NO
SIGNIFICANT WEATHER AND/OR OBSTRUCTIONS TO VISIBILITY.


SDZ001>005-009-010-012>017-030400-
NORTHWEST AND NORTH CENTRAL SOUTH DAKOTA

CITY           SKY/WX    TMP DP  RH WIND       PRES   REMARKS
BUFFALO          N/A     60  48  64 NE9       29.74R
FAITH            N/A     65  50  58 NE6       29.79S
MOBRIDGE       PTCLDY    60  55  83 N5        29.75R
$$

SDZ012>016-024>037-041>051-057-063-072>074-030400-
SOUTHWEST AND SOUTH CENTRAL SOUTH DAKOTA

CITY           SKY/WX    TMP DP  RH WIND       PRES   REMARKS
RAPID CTY ARPT CLEAR     62  45  53 CALM      29.80S
PIERRE         CLEAR     70  54  56 SE13      29.75S
CUSTER         CLEAR     63  36  36 CALM      29.94S
ELLSWORTH AFB  CLEAR     67  44  42 VRB2      29.80S
PHILIP         CLEAR     64  48  56 CALM      29.77S
PINE RIDGE     CLEAR     58  51  78 E8        29.82F
WINNER         FAIR      71  58  63 SE15      29.79S
$$

SDZ004>011-016>023-039-040-030400-
NORTHEAST SOUTH DAKOTA

CITY           SKY/WX    TMP DP  RH WIND       PRES   REMARKS
ABERDEEN       PTCLDY    62  56  80 S10       29.77R
WATERTOWN      MOCLDY    62  56  80 S8        29.83F
SISSETON         N/A     68  56  65 SW12      29.78S
$$

SDZ017-020-022-023-036>040-048>070-030400-
SOUTHEAST SOUTH DAKOTA

CITY           SKY/WX    TMP DP  RH WIND       PRES   REMARKS
SIOUX FALLS    MOCLDY    67  57  70 S12       29.88F
HURON          PTCLDY    66  57  72 SE9       29.80S
CHAMBERLAIN    CLEAR     66  57  71 SE10      29.79S
MITCHELL       CLEAR     68  61  78 S9        29.83S
YANKTON        CLEAR     66  59  77 SE6       29.88S
$$

ABBREVIATIONS USED IN REMARKS
   TC - TEMPERATURE IN CELSIUS
  WCI - WIND CHILL INDEX
   HX - HEAT INDEX
  VSB - VISIBILITY




USA.gov is the U.S. government's official web portal to all federal, state and local government web resources and services.